SCP
0 0 0 0 0 0 0 0 0 0 0 0 0 0 0 0 0 0 0 0 0 0 0 0 0 0 0 0 0 0 0 0 0 0 0 0 0 0 0 0 0 0 0
0 0 0 0 0 0 0 0 0 0 0 0 0 0 0 0 0 0 0 0 0 0 0 0 0 0 0 0 0 0 0 0 0 0 0 0 0 0 0 0 0 0 0
0 0 0 0 0 0 0 0 0 0 0 0 0 0 0 0 0 0 0 0 0 0 0 0 0 0 0 0 0 0 0 0 0 0 0 0 0 0 0 0 0 0 0
0 0 0 0 0 0 0 0 0 0 0 0 0 0 0 0 0 0 0 0 0 0 0 0 0 0 0 0 0 0 0 0 0 0 0 0 0 0 0 0 0 0 0
0 0 0 0 0 0 0 0 0 0 0 0 0 0 0 0 0 0 0 0 0 0 0 0 0 0 0 0 0 0 0 0 0 0 0 0 0 0 0 0 0 0 0
0 0 0 0 0 0 0 0 0 0 0 0 0 0 0 0 0 0 0 0 0 0 0 0 0 0 0 0 0 0 0 0 0 0 0 0 0 0 0 0 0 0 0
0 0 0 0 0 0 0 0 0 0 0 0 0 0 0 0 0 0 0 0 0 0 0 0 0 0 0 0 0 0 0 0 0 0 0 0 0 0 0 0 0 0 0
0 0 0 0 0 0 0 0 0 0 0 0 0 0 0 0 0 0 0 0 0 0 0 0 0 0 0 0 0 0 0 0 0 0 0 0 0 0 0 0 0 0 0
0 0 0 0 0 0 0 0 0 0 0 0 0 0 0 0 0 0 0 0 0 0 0 0 0 0 0 0 0 0 0 0 0 0 0 0 0 0 0 0 0 0 0
0 0 0 0 0 0 0 0 0 0 0 0 0 0 0 0 0 0 0 0 0 0 0 0 0 0 0 0 0 0 0 0 0 0 0 0 0 0 0 0 0 0 -0
0 -0 0 0 0 0 0 0 0 0 0 0 0 0 0 0 0 0 0 0 0 0 0 0 0 0 0 0 0 0 0 0 0 0 0 0 0 0 0 0 0 -0 -0
0 0 0 0 0 0 0 0 0 0 0 0 0 0 0 0 0 0 0 0 0 0 0 0 0 0 0 0 0 0 0 0 0 0 0 0 0 0 0 0 0 -0 -0
0 0 0 0 0 0 0 0 0 0 0 0 0 0 0 0 0 0 0 0 0 0 0 0 0 0 0 0 0 0 0 0 0 0 0 0 0 0 0 -0 -0 -0 -0
0 0 0 0 0 0 0 0 0 0 0 0 0 0 0 0 0 0 0 0 0 0 0 0 0 0 0 0 0 0 0 0 0 0 0 0 0 0 -0 -0 -0 -0 -0
0 0 0 0 0 0 0 0 0 -0 0 0 -0 0 0 0 0 0 0 0 0 0 0 0 0 0 0 0 0 0 0 0 0 0 0 0 0 -0 -0 -0 -0 -0 0
0 0 0 0 0 0 0 0 -0 -0 0 0 0 0 0 0 0 0 0 0 0 0 0 0 0 0 0 0 0 0 0 0 0 0 0 0 -0 -0 -0 -0 -0 -0 0
0 0 0 0 0 0 0 0 0 0 0 0 0 0 0 0 0 0 0 0 0 0 0 0 0 0 0 0 0 0 0 -0 0 0 0 0 -0 -0 -0 -0 -0 0 0
0 0 0 0 0 0 0 0 0 0 0 0 0 0 0 0 0 0 0 0 0 0 0 0 0 0 0 0 0 0 0 0 0 0 -0 -0 -0 -0 -0 -0 0 0 0
0 0 0 0 0 0 0 0 0 0 0 0 0 0 0 0 0 0 0 0 0 0 0 0 0 0 0 0 0 0 0 0 0 -0 -0 -0 -0 -0 -0 0 0 0 0
0 0 0 0 0 0 0 0 0 0 0 0 0 0 0 0 0 0 0 0 0 0 0 0 0 0 0 0 -0 0 0 0 0 0 0 -0 -0 -0 -0 0 0 0 0
0 0 0 0 0 0 0 0 0 0 0 0 0 0 0 0 -0 0 0 0 0 0 0 0 0 0 0 0 0 0 0 0 0 0 0 0 0 0 0 0 0 0 0
0 0 0 0 -0 -0 0 -0 0 0 0 -0 -0 -0 -0 -0 -0 -0 -0 0 0 0 0 0 0 0 0 0 0 0 0 -0 0 0 0 0 0 0 0 0 0 0 0
0 0 0 0 0 0 -0 -0 -0 0 -0 -0 -0 -0 0 -0 -0 -0 -0 -0 -0 0 0 0 0 0 0 0 0 -0 -0 -0 0 0 0 0 0 0 0 0 0 0 0
-0 0 0 0 -0 0 0 -0 0 0 0 0 0 0 0 -0 -0 0 0 0 0 0 -0 -0 -0 -0 0 0 0 0 0 0 0 0 0 0 0 0 0 0 0 0 0
0 0 -0 -0 0 0 0 0 0 0 0 0 0 0 0 0 0 0 0 -0 -0 -0 -0 -0 -0 -0 0 -0 -0 0 0 0 0 0 0 0 0 0 0 0 0 0 0
0 0 0 0 0 0 0 -0 -0 0 -0 -0 -0 -0 -0 -0 -0 0 0 0 -0 -0 -0 -0 0 0 0 0 -0 0 0 0 0 0 0 0 0 0 0 0 0 0 0
Wind_Speed_500mb
62 48 56 48 37 32 42 39 44 46 41 38 33 25 22 18 17 14 14 14 13 12 11 9 6 7 11 15 20 24 21 18 13 17 29 43 42 44 48 49 48 47 44
41 35 55 57 58 28 44 48 52 52 39 45 36 29 23 20 17 15 13 12 10 8 6 4 4 7 12 16 19 16 15 10 20 29 42 40 43 48 52 52 46 44 42
38 38 45 61 62 39 36 64 60 58 48 50 44 41 30 21 16 15 14 13 9 5 2 2 7 11 14 12 24 10 7 16 30 37 36 40 45 49 52 50 44 43 42
32 40 43 40 57 62 31 32 38 43 57 52 47 41 35 26 19 13 10 8 5 2 4 4 7 10 7 3 15 11 15 23 33 36 36 39 46 50 47 43 43 45 44
27 28 33 41 56 56 39 23 21 42 51 53 40 45 37 25 15 11 9 8 4 0 6 9 10 12 10 8 10 11 22 32 32 36 38 42 47 47 42 41 44 43 40
29 28 36 39 58 49 44 40 24 31 38 46 39 36 28 22 20 15 15 7 8 7 8 11 14 10 11 8 7 15 27 33 34 34 37 39 43 38 39 47 49 43 40
30 34 36 42 51 57 54 44 46 41 41 47 40 32 25 24 22 18 11 8 11 16 3 12 12 9 11 11 12 19 24 30 32 31 33 38 37 35 39 41 40 43 44
31 36 39 39 47 51 39 43 46 54 48 53 52 42 25 20 21 17 12 9 10 9 13 14 14 16 14 14 22 24 26 28 27 29 33 34 31 33 37 31 36 44 40
30 34 33 38 50 65 58 50 51 52 62 57 56 29 17 12 24 18 16 15 17 14 15 15 17 16 17 23 24 25 26 20 22 24 27 29 29 32 28 30 31 33 38
22 29 41 41 53 57 67 57 49 58 61 61 54 39 21 16 18 14 19 22 19 19 18 17 15 15 18 25 28 25 20 15 19 22 27 26 22 29 28 29 28 31 37
15 33 40 46 54 55 64 65 61 61 58 61 56 54 30 18 15 13 20 25 23 19 18 18 15 18 23 24 20 18 15 11 15 21 23 19 18 25 24 25 29 30 32
8 24 18 41 53 56 60 66 59 66 58 60 60 49 47 29 21 16 10 11 17 20 22 22 21 24 24 14 13 13 11 9 14 16 17 14 12 19 23 25 29 26 30
8 14 11 44 56 65 58 54 53 58 50 53 49 50 47 38 20 19 11 9 13 17 17 19 22 23 13 10 9 8 10 14 13 14 12 12 14 21 22 22 23 26 26
6 16 25 39 47 55 57 47 53 58 52 54 55 53 46 38 31 20 19 17 14 15 16 20 21 14 10 10 5 6 9 18 18 17 13 11 13 18 15 19 21 25 28
7 11 17 35 47 49 56 44 47 48 47 44 43 38 41 40 34 36 30 23 20 18 13 18 21 15 11 9 7 3 6 11 11 8 9 6 9 8 13 19 20 23 26
10 8 4 23 26 43 56 49 42 35 37 37 39 38 38 40 32 25 24 24 24 15 13 17 16 14 11 10 10 5 5 2 5 7 11 9 6 15 17 15 17 21 25
13 9 10 14 30 41 44 39 36 33 35 38 40 41 38 40 31 29 27 27 27 24 18 11 15 17 12 13 9 5 5 1 4 5 3 2 5 13 11 11 14 18 22
11 16 21 19 23 42 37 34 27 26 26 28 31 33 24 17 27 27 23 17 19 15 16 12 15 21 20 19 14 12 7 5 5 4 4 9 7 8 9 6 8 14 21
14 14 18 26 27 25 26 29 26 18 11 32 32 35 24 17 28 26 19 12 15 15 12 9 12 22 24 23 20 13 9 11 6 4 4 8 6 5 8 2 6 13 17
20 25 23 19 20 24 27 28 25 17 22 15 11 11 16 14 16 19 19 13 13 9 11 10 10 16 25 22 17 19 19 18 12 8 8 10 7 3 3 1 5 10 14
23 29 24 28 25 24 23 23 20 17 19 16 16 22 18 17 15 11 10 10 11 13 13 13 14 19 25 26 27 24 24 21 17 14 12 12 8 5 1 1 5 7 10
22 22 23 25 31 29 27 23 21 20 31 23 19 16 18 21 16 12 10 11 10 11 14 18 19 23 25 26 30 29 29 28 20 17 19 16 16 12 5 6 7 6 10
27 26 28 27 27 26 21 16 16 15 16 19 18 14 13 11 12 10 9 11 13 15 16 17 20 22 23 22 26 33 30 24 14 16 18 19 18 16 15 8 8 8 10
24 23 24 23 20 17 11 12 11 14 14 15 13 11 9 8 9 8 10 12 16 18 19 21 22 24 24 23 27 27 25 23 26 18 19 17 14 13 12 9 8 7 11
21 18 15 11 10 10 14 16 17 18 14 10 7 6 6 6 7 9 12 13 16 18 19 21 23 23 24 28 29 32 36 35 32 23 19 17 13 13 16 16 13 8 9
22 20 14 11 13 11 10 9 6 3 6 7 9 8 7 8 11 14 17 20 19 20 20 20 22 23 24 27 28 32 32 34 32 20 23 25 13 15 14 17 16 11 11
Wind_Direction_500mb
240 228 223 216 221 232 220 207 206 196 190 187 188 189 187 181 166 146 145 146 145 141 147 179 239 286 302 327 326 332 337 353 346 334 339 333 338 339 340 337 337 338 341
243 229 230 229 230 224 214 216 205 198 191 182 176 182 175 170 158 141 140 143 144 146 166 221 289 328 325 337 348 12 9 316 331 336 333 341 342 342 341 341 345 344 346
242 243 249 226 217 225 219 202 205 202 201 177 183 173 163 162 152 140 134 131 136 143 182 309 0 338 341 14 26 75 312 330 330 334 339 345 343 343 345 344 350 352 352
246 245 247 239 220 221 229 224 207 202 181 177 177 173 168 167 160 155 143 136 150 168 282 331 313 318 332 115 43 336 302 326 334 344 344 346 346 347 349 354 356 360 1
254 244 233 237 214 220 214 221 197 201 181 180 178 179 167 161 169 169 179 186 197 324 312 322 323 304 300 279 209 314 322 339 346 344 344 348 349 350 358 3 6 5 1
248 243 231 226 205 209 210 201 195 190 204 184 182 177 166 179 187 186 196 188 224 279 298 320 311 308 302 303 291 320 330 336 339 337 342 350 350 356 10 24 19 17 20
259 248 237 222 224 201 205 202 201 191 194 202 175 174 190 199 198 192 204 232 263 254 236 294 296 299 309 320 320 329 327 317 327 331 345 348 356 11 29 33 28 31 35
250 244 242 229 214 213 214 209 205 187 193 205 185 180 164 172 192 186 217 240 240 227 272 263 280 302 315 327 335 334 315 322 327 333 343 355 9 23 37 32 35 41 42
256 250 239 235 214 214 218 223 214 215 205 203 193 175 159 174 183 186 211 225 230 240 234 246 259 296 325 328 319 320 327 334 332 336 345 11 20 43 37 43 47 52 49
271 277 244 239 216 210 217 218 219 211 209 199 186 192 182 179 179 181 212 215 220 235 242 248 263 295 314 318 314 321 333 345 338 337 357 14 38 58 48 45 51 49 45
275 315 259 239 216 209 217 213 217 213 217 208 203 200 202 199 201 199 198 213 224 234 244 248 269 292 298 306 314 323 327 329 325 348 358 20 49 72 57 53 47 50 48
297 320 240 214 203 208 214 211 218 210 213 215 208 210 214 203 209 208 186 196 233 243 253 268 281 297 288 305 323 324 318 345 344 357 3 30 58 79 64 57 55 50 44
14 10 267 206 205 209 206 208 210 198 210 209 216 219 218 222 238 231 229 245 231 249 269 279 275 274 281 293 303 335 325 349 359 357 23 48 56 75 72 64 53 47 45
5 9 350 200 202 205 205 208 201 197 206 211 221 224 218 227 234 229 244 265 262 261 259 266 262 249 254 280 324 310 341 352 358 1 15 39 66 82 79 64 55 54 48
104 48 336 183 201 201 198 202 202 206 215 218 210 206 218 226 235 242 249 255 260 259 250 271 254 244 245 268 245 290 341 32 1 0 10 52 73 88 69 65 56 51 39
96 92 353 144 177 182 188 189 194 192 188 190 193 203 211 219 225 228 241 258 268 248 261 270 254 243 227 238 242 264 295 31 332 21 6 25 20 100 90 75 61 45 34
115 108 79 92 135 153 163 173 190 194 194 196 200 209 215 215 214 238 247 263 263 261 277 278 242 234 215 217 213 262 248 105 340 338 18 105 111 112 103 86 60 39 29
133 104 100 114 114 148 164 168 156 159 180 192 209 208 193 219 224 239 261 246 249 256 242 214 219 212 202 203 196 220 215 220 229 231 88 108 112 116 135 95 53 30 25
120 120 119 102 127 137 150 156 158 158 198 201 229 226 236 220 220 229 213 229 241 234 204 221 228 218 211 206 214 219 229 226 230 219 143 138 148 122 145 106 24 16 14
126 124 112 111 138 149 148 148 158 180 144 170 196 222 195 198 209 221 230 218 211 210 218 255 242 223 208 210 212 224 220 218 216 207 199 170 174 167 131 50 359 350 1
117 117 113 96 93 151 172 177 178 187 197 209 197 190 197 217 222 204 204 216 230 237 237 226 233 229 210 220 220 219 216 222 217 226 210 197 194 208 241 304 309 334 346
106 113 109 121 126 117 115 119 131 163 174 172 188 201 215 201 198 193 200 221 229 235 240 239 239 232 236 231 229 221 218 215 210 230 222 213 213 218 272 281 293 317 331
102 114 124 128 120 114 108 123 129 157 155 162 152 152 182 196 195 212 229 249 251 252 253 244 245 251 264 265 239 223 219 220 227 254 220 225 225 223 246 281 311 309 306
119 111 105 104 105 108 120 134 145 136 153 154 156 176 192 201 208 218 232 248 264 270 268 265 262 255 244 233 233 234 230 212 224 246 218 236 241 237 255 271 289 315 334
128 131 125 117 139 148 152 156 156 155 152 148 169 184 188 206 234 249 259 262 264 263 266 263 259 254 249 233 219 216 216 218 226 240 226 234 243 237 253 260 276 311 353
139 137 133 142 155 160 158 189 190 187 200 202 202 214 244 272 281 273 272 267 268 264 263 265 256 249 240 231 222 214 225 232 229 241 234 235 248 241 259 248 256 283 311
Wind_Speed_850mb
62 48 56 48 37 32 42 39 44 46 41 38 33 25 22 18 17 14 14 14 13 12 11 9 6 7 11 15 20 24 21 18 13 17 29 43 42 44 48 49 48 47 44
41 35 55 57 58 28 44 48 52 52 39 45 36 29 23 20 17 15 13 12 10 8 6 4 4 7 12 16 19 16 15 10 20 29 42 40 43 48 52 52 46 44 42
38 38 45 61 62 39 36 64 60 58 48 50 44 41 30 21 16 15 14 13 9 5 2 2 7 11 14 12 24 10 7 16 30 37 36 40 45 49 52 50 44 43 42
32 40 43 40 57 62 31 32 38 43 57 52 47 41 35 26 19 13 10 8 5 2 4 4 7 10 7 3 15 11 15 23 33 36 36 39 46 50 47 43 43 45 44
27 28 33 41 56 56 39 23 21 42 51 53 40 45 37 25 15 11 9 8 4 0 6 9 10 12 10 8 10 11 22 32 32 36 38 42 47 47 42 41 44 43 40
29 28 36 39 58 49 44 40 24 31 38 46 39 36 28 22 20 15 15 7 8 7 8 11 14 10 11 8 7 15 27 33 34 34 37 39 43 38 39 47 49 43 40
30 34 36 42 51 57 54 44 46 41 41 47 40 32 25 24 22 18 11 8 11 16 3 12 12 9 11 11 12 19 24 30 32 31 33 38 37 35 39 41 40 43 44
31 36 39 39 47 51 39 43 46 54 48 53 52 42 25 20 21 17 12 9 10 9 13 14 14 16 14 14 22 24 26 28 27 29 33 34 31 33 37 31 36 44 40
30 34 33 38 50 65 58 50 51 52 62 57 56 29 17 12 24 18 16 15 17 14 15 15 17 16 17 23 24 25 26 20 22 24 27 29 29 32 28 30 31 33 38
22 29 41 41 53 57 67 57 49 58 61 61 54 39 21 16 18 14 19 22 19 19 18 17 15 15 18 25 28 25 20 15 19 22 27 26 22 29 28 29 28 31 37
15 33 40 46 54 55 64 65 61 61 58 61 56 54 30 18 15 13 20 25 23 19 18 18 15 18 23 24 20 18 15 11 15 21 23 19 18 25 24 25 29 30 32
8 24 18 41 53 56 60 66 59 66 58 60 60 49 47 29 21 16 10 11 17 20 22 22 21 24 24 14 13 13 11 9 14 16 17 14 12 19 23 25 29 26 30
8 14 11 44 56 65 58 54 53 58 50 53 49 50 47 38 20 19 11 9 13 17 17 19 22 23 13 10 9 8 10 14 13 14 12 12 14 21 22 22 23 26 26
6 16 25 39 47 55 57 47 53 58 52 54 55 53 46 38 31 20 19 17 14 15 16 20 21 14 10 10 5 6 9 18 18 17 13 11 13 18 15 19 21 25 28
7 11 17 35 47 49 56 44 47 48 47 44 43 38 41 40 34 36 30 23 20 18 13 18 21 15 11 9 7 3 6 11 11 8 9 6 9 8 13 19 20 23 26
10 8 4 23 26 43 56 49 42 35 37 37 39 38 38 40 32 25 24 24 24 15 13 17 16 14 11 10 10 5 5 2 5 7 11 9 6 15 17 15 17 21 25
13 9 10 14 30 41 44 39 36 33 35 38 40 41 38 40 31 29 27 27 27 24 18 11 15 17 12 13 9 5 5 1 4 5 3 2 5 13 11 11 14 18 22
11 16 21 19 23 42 37 34 27 26 26 28 31 33 24 17 27 27 23 17 19 15 16 12 15 21 20 19 14 12 7 5 5 4 4 9 7 8 9 6 8 14 21
14 14 18 26 27 25 26 29 26 18 11 32 32 35 24 17 28 26 19 12 15 15 12 9 12 22 24 23 20 13 9 11 6 4 4 8 6 5 8 2 6 13 17
20 25 23 19 20 24 27 28 25 17 22 15 11 11 16 14 16 19 19 13 13 9 11 10 10 16 25 22 17 19 19 18 12 8 8 10 7 3 3 1 5 10 14
23 29 24 28 25 24 23 23 20 17 19 16 16 22 18 17 15 11 10 10 11 13 13 13 14 19 25 26 27 24 24 21 17 14 12 12 8 5 1 1 5 7 10
22 22 23 25 31 29 27 23 21 20 31 23 19 16 18 21 16 12 10 11 10 11 14 18 19 23 25 26 30 29 29 28 20 17 19 16 16 12 5 6 7 6 10
27 26 28 27 27 26 21 16 16 15 16 19 18 14 13 11 12 10 9 11 13 15 16 17 20 22 23 22 26 33 30 24 14 16 18 19 18 16 15 8 8 8 10
24 23 24 23 20 17 11 12 11 14 14 15 13 11 9 8 9 8 10 12 16 18 19 21 22 24 24 23 27 27 25 23 26 18 19 17 14 13 12 9 8 7 11
21 18 15 11 10 10 14 16 17 18 14 10 7 6 6 6 7 9 12 13 16 18 19 21 23 23 24 28 29 32 36 35 32 23 19 17 13 13 16 16 13 8 9
22 20 14 11 13 11 10 9 6 3 6 7 9 8 7 8 11 14 17 20 19 20 20 20 22 23 24 27 28 32 32 34 32 20 23 25 13 15 14 17 16 11 11
Wind_Direction_850mb
240 228 223 216 221 232 220 207 206 196 190 187 188 189 187 181 166 146 145 146 145 141 147 179 239 286 302 327 326 332 337 353 346 334 339 333 338 339 340 337 337 338 341
243 229 230 229 230 224 214 216 205 198 191 182 176 182 175 170 158 141 140 143 144 146 166 221 289 328 325 337 348 12 9 316 331 336 333 341 342 342 341 341 345 344 346
242 243 249 226 217 225 219 202 205 202 201 177 183 173 163 162 152 140 134 131 136 143 182 309 0 338 341 14 26 75 312 330 330 334 339 345 343 343 345 344 350 352 352
246 245 247 239 220 221 229 224 207 202 181 177 177 173 168 167 160 155 143 136 150 168 282 331 313 318 332 115 43 336 302 326 334 344 344 346 346 347 349 354 356 360 1
254 244 233 237 214 220 214 221 197 201 181 180 178 179 167 161 169 169 179 186 197 324 312 322 323 304 300 279 209 314 322 339 346 344 344 348 349 350 358 3 6 5 1
248 243 231 226 205 209 210 201 195 190 204 184 182 177 166 179 187 186 196 188 224 279 298 320 311 308 302 303 291 320 330 336 339 337 342 350 350 356 10 24 19 17 20
259 248 237 222 224 201 205 202 201 191 194 202 175 174 190 199 198 192 204 232 263 254 236 294 296 299 309 320 320 329 327 317 327 331 345 348 356 11 29 33 28 31 35
250 244 242 229 214 213 214 209 205 187 193 205 185 180 164 172 192 186 217 240 240 227 272 263 280 302 315 327 335 334 315 322 327 333 343 355 9 23 37 32 35 41 42
256 250 239 235 214 214 218 223 214 215 205 203 193 175 159 174 183 186 211 225 230 240 234 246 259 296 325 328 319 320 327 334 332 336 345 11 20 43 37 43 47 52 49
271 277 244 239 216 210 217 218 219 211 209 199 186 192 182 179 179 181 212 215 220 235 242 248 263 295 314 318 314 321 333 345 338 337 357 14 38 58 48 45 51 49 45
275 315 259 239 216 209 217 213 217 213 217 208 203 200 202 199 201 199 198 213 224 234 244 248 269 292 298 306 314 323 327 329 325 348 358 20 49 72 57 53 47 50 48
297 320 240 214 203 208 214 211 218 210 213 215 208 210 214 203 209 208 186 196 233 243 253 268 281 297 288 305 323 324 318 345 344 357 3 30 58 79 64 57 55 50 44
14 10 267 206 205 209 206 208 210 198 210 209 216 219 218 222 238 231 229 245 231 249 269 279 275 274 281 293 303 335 325 349 359 357 23 48 56 75 72 64 53 47 45
5 9 350 200 202 205 205 208 201 197 206 211 221 224 218 227 234 229 244 265 262 261 259 266 262 249 254 280 324 310 341 352 358 1 15 39 66 82 79 64 55 54 48
104 48 336 183 201 201 198 202 202 206 215 218 210 206 218 226 235 242 249 255 260 259 250 271 254 244 245 268 245 290 341 32 1 0 10 52 73 88 69 65 56 51 39
96 92 353 144 177 182 188 189 194 192 188 190 193 203 211 219 225 228 241 258 268 248 261 270 254 243 227 238 242 264 295 31 332 21 6 25 20 100 90 75 61 45 34
115 108 79 92 135 153 163 173 190 194 194 196 200 209 215 215 214 238 247 263 263 261 277 278 242 234 215 217 213 262 248 105 340 338 18 105 111 112 103 86 60 39 29
133 104 100 114 114 148 164 168 156 159 180 192 209 208 193 219 224 239 261 246 249 256 242 214 219 212 202 203 196 220 215 220 229 231 88 108 112 116 135 95 53 30 25
120 120 119 102 127 137 150 156 158 158 198 201 229 226 236 220 220 229 213 229 241 234 204 221 228 218 211 206 214 219 229 226 230 219 143 138 148 122 145 106 24 16 14
126 124 112 111 138 149 148 148 158 180 144 170 196 222 195 198 209 221 230 218 211 210 218 255 242 223 208 210 212 224 220 218 216 207 199 170 174 167 131 50 359 350 1
117 117 113 96 93 151 172 177 178 187 197 209 197 190 197 217 222 204 204 216 230 237 237 226 233 229 210 220 220 219 216 222 217 226 210 197 194 208 241 304 309 334 346
106 113 109 121 126 117 115 119 131 163 174 172 188 201 215 201 198 193 200 221 229 235 240 239 239 232 236 231 229 221 218 215 210 230 222 213 213 218 272 281 293 317 331
102 114 124 128 120 114 108 123 129 157 155 162 152 152 182 196 195 212 229 249 251 252 253 244 245 251 264 265 239 223 219 220 227 254 220 225 225 223 246 281 311 309 306
119 111 105 104 105 108 120 134 145 136 153 154 156 176 192 201 208 218 232 248 264 270 268 265 262 255 244 233 233 234 230 212 224 246 218 236 241 237 255 271 289 315 334
128 131 125 117 139 148 152 156 156 155 152 148 169 184 188 206 234 249 259 262 264 263 266 263 259 254 249 233 219 216 216 218 226 240 226 234 243 237 253 260 276 311 353
139 137 133 142 155 160 158 189 190 187 200 202 202 214 244 272 281 273 272 267 268 264 263 265 256 249 240 231 222 214 225 232 229 241 234 235 248 241 259 248 256 283 311